EW6020 Weather Reports


time (UTC)temp
C
wind
direction
speed
KPH
gust
KPH
rain 1hr
cm
rain 24hr
cm
rain mn
cm
humidity
%
barometer
mb
20260509134520 -17 0.0 0.0 0.00 0.00 0.00 1018.9
20260509133015 -17 0.0 0.0 0.00 0.00 0.00 1019.0
20260509131513 -17 0.0 0.0 0.00 0.00 0.00 1018.9
20260509130006 -17 0.0 0.0 0.00 0.00 0.00 1018.9
20260509124502 -17 0.0 0.0 0.00 0.00 0.00 1018.9
20260509123100 7 180 0.0 1.6 0.00 0.00 0.00 92 1018.8
20260509121607 8 176 0.0 0.0 0.00 0.00 0.00 92 1019.1
20260509120112 9 172 0.0 1.6 0.00 0.00 0.00 91 1019.3
20260509114553 9 176 0.0 0.0 0.00 0.00 0.00 91 1019.1
20260509113055 9 176 0.0 1.6 0.00 0.00 0.00 91 1019.1
20260509111551 9 176 0.0 4.8 0.00 0.00 0.00 91 1019.1
20260509110053 9 178 0.0 3.2 0.00 0.00 0.00 90 1019.4
20260509104547 10 179 1.6 4.8 0.00 0.00 0.00 91 1019.6
20260509103044 9 178 0.0 0.0 0.00 0.00 0.00 91 1019.8
20260509101552 10 177 0.0 3.2 0.00 0.00 0.00 90 1019.8
20260509100044 10 178 4.8 6.4 0.00 0.00 0.00 90 1019.8
20260509094539 10 178 3.2 8.0 0.00 0.00 0.00 90 1019.9
20260509093036 10 178 1.6 4.8 0.00 0.00 0.00 89 1019.8
20260509091536 10 178 3.2 6.4 0.00 0.00 0.00 88 1020.0
20260509090032 11 177 3.2 8.0 0.00 0.00 0.00 86 1020.0
20260509084530 11 177 1.6 4.8 0.00 0.00 0.00 85 1020.0
20260509083026 11 177 1.6 11.3 0.00 0.00 0.00 84 1020.2
20260509081525 12 177 4.8 12.9 0.00 0.00 0.00 83 1020.2
20260509080021 12 177 6.4 16.1 0.00 0.00 0.00 82 1020.3
20260509074520 12 156 3.2 14.5 0.00 0.00 0.00 82 1020.4
20260509073028 12 179 4.8 12.9 0.00 0.00 0.00 82 1020.5
20260509071515 12 154 3.2 12.9 0.00 0.00 0.00 82 1020.5
20260509070013 12 153 1.6 9.7 0.00 0.00 0.00 80 1020.4
20260509064512 12 178 3.2 14.5 0.00 0.00 0.00 80 1020.4
20260509063014 12 177 3.2 12.9 0.00 0.00 0.00 79 1020.4
20260509061509 13 177 1.6 8.0 0.00 0.00 0.00 77 1020.4
20260509060012 13 178 3.2 12.9 0.00 0.00 0.00 76 1020.3
20260509054507 13 178 3.2 16.1 0.00 0.00 0.00 75 1020.2
20260509053007 13 178 3.2 9.7 0.00 0.00 0.00 76 1020.2
20260509051508 13 178 1.6 9.7 0.00 0.00 0.00 75 1020.1
20260509050006 14 178 1.6 4.8 0.00 0.00 0.00 74 1020.0
20260509044505 14 177 3.2 6.4 0.00 0.00 0.00 74 1019.9
20260509043005 15 176 1.6 6.4 0.00 0.00 0.00 70 1019.8
20260509041505 16 179 1.6 12.9 0.00 0.00 0.00 66 1019.6
20260509040003 16 177 4.8 9.7 0.00 0.00 0.00 65 1019.3
20260509034502 16 154 3.2 12.9 0.00 0.00 0.00 64 1019.3
20260509033002 17 177 3.2 9.7 0.00 0.00 0.00 62 1019.3
20260509031501 17 178 6.4 17.7 0.00 0.00 0.00 60 1019.1
20260509030101 18 177 4.8 14.5 0.00 0.00 0.00 59 1019.1
20260509024559 18 178 11.3 16.1 0.00 0.00 0.00 58 1018.9
20260509023058 19 177 6.4 14.5 0.00 0.00 0.00 55 1018.9
20260509021559 19 178 1.6 6.4 0.00 0.00 0.00 55 1018.9
20260509020057 19 180 0.0 4.8 0.00 0.00 0.00 57 1018.8
20260509014557 20 180 4.8 8.0 0.00 0.00 0.00 53 1018.8
20260509013056 20 176 3.2 11.3 0.00 0.00 0.00 55 1018.8
20260509011605 20 160 4.8 9.7 0.00 0.00 0.00 54 1018.9
20260509010054 20 177 0.0 4.8 0.00 0.00 0.00 52 1019.1
20260509004607 20 178 3.2 11.3 0.00 0.00 0.00 53 1019.2
20260509003052 19 158 4.8 16.1 0.00 0.00 0.00 55 1019.1
20260509001551 20 154 6.4 11.3 0.00 0.00 0.00 52 1019.2
20260509000050 20 177 3.2 12.9 0.00 0.00 0.00 53 1019.3
20260508234548 18 162 0.0 11.3 0.00 0.00 0.00 55 1019.4
20260508233048 19 175 9.7 14.5 0.00 0.00 0.00 56 1019.5
20260508231550 19 177 1.6 9.7 0.00 0.00 0.00 56 1019.4
20260508230046 19 178 4.8 8.0 0.00 0.00 0.00 52 1019.4
20260508224545 18 160 8.0 16.1 0.00 0.00 0.00 58 1019.4
20260508223049 18 176 3.2 12.9 0.00 0.00 0.00 54 1019.5
20260508221543 18 162 4.8 9.7 0.00 0.00 0.00 55 1019.6
20260508220040 18 176 3.2 14.5 0.00 0.00 0.00 52 1019.7
20260508214548 17 155 3.2 17.7 0.00 0.00 0.00 57 1019.8
20260508213039 17 177 3.2 17.7 0.00 0.00 0.00 54 1019.8
20260508211539 17 151 4.8 12.9 0.00 0.00 0.00 56 1019.8
20260508210038 16 179 0.0 17.7 0.00 0.00 0.00 56 1019.8
20260508204543 18 153 9.7 16.1 0.00 0.00 0.00 55 1019.8
20260508203036 18 157 3.2 8.0 0.00 0.00 0.00 55 1019.7
20260508201535 17 178 0.0 14.5 0.00 0.00 0.00 54 1019.8
20260508200031 17 153 4.8 11.3 0.00 0.00 0.00 55 1019.8
20260508194531 16 176 8.0 14.5 0.00 0.00 0.00 59 1019.9
20260508193029 16 172 3.2 11.3 0.00 0.00 0.00 54 1019.9
20260508191531 16 176 1.6 8.0 0.00 0.00 0.00 56 1020.1
20260508190027 15 177 1.6 6.4 0.00 0.00 0.00 60 1020.1
20260508184521 15 179 0.0 4.8 0.00 0.00 0.00 65 1020.1
20260508183019 13 178 0.0 9.7 0.00 0.00 0.00 66 1020.2
20260508181517 13 178 1.6 11.3 0.00 0.00 0.00 68 1020.1
20260508180018 13 179 0.0 16.1 0.00 0.00 0.00 73 1019.9
20260508174512 13 176 0.0 4.8 0.00 0.00 0.00 71 1019.8
20260508173010 13 180 0.0 8.0 0.00 0.00 0.00 69 1019.7
20260508171507 12 177 6.4 11.3 0.00 0.00 0.00 69 1019.7
20260508170004 12 176 3.2 12.9 0.00 0.00 0.00 71 1019.7
20260508164501 12 178 3.2 11.3 0.00 0.00 0.00 75 1019.6
20260508163058 11 171 3.2 9.7 0.00 0.00 0.00 77 1019.4
20260508161557 11 158 8.0 12.9 0.00 0.00 0.00 77 1019.3
20260508160126 11 150 3.2 12.9 0.00 0.00 0.00 79 1019.1
20260508154557 10 179 6.4 14.5 0.00 0.00 0.00 79 1019.2
20260508153050 10 179 11.3 14.5 0.00 0.00 0.00 78 1018.9
20260508151551 10 146 6.4 11.3 0.00 0.00 0.00 84 1018.8
20260508150046 8 179 4.8 8.0 0.00 0.00 0.00 86 1018.7
20260508144547 8 179 4.8 8.0 0.00 0.00 0.00 88 1018.5
20260508143057 8 179 3.2 4.8 0.00 0.00 0.00 89 1018.7
20260508141552 7 179 1.6 6.4 0.00 0.00 0.00 91 1018.5
20260508140042 7 179 4.8 6.4 0.00 0.00 0.00 91 1018.6